This is the latest recevied weather packets stored in our database for station/object IT9FBN-3. If no packets are shown the sender has not sent any weather packets the latest 10 day(s).
| Time | Temp. | Humidity | Pressure | Rain* | Wind** | Luminosity | Snow |
|---|---|---|---|---|---|---|---|
| 1777706405 | 14.44° C | 58% | 1021.9 hPa | 0 mm | - | - | - |
| 1777706105 | 13.89° C | 64% | 1021.9 hPa | 0 mm | - | - | - |
| 1777705805 | 13.89° C | 64% | 1021.8 hPa | 0 mm | - | - | - |
| 1777705505 | 13.33° C | 64% | 1021.9 hPa | 0 mm | - | - | - |
| 1777705205 | 13.33° C | 63% | 1021.8 hPa | 0 mm | - | - | - |
| 1777704905 | 13.33° C | 63% | 1021.8 hPa | 0 mm | - | - | - |
| 1777704605 | 13.33° C | 66% | 1021.6 hPa | 0 mm | - | - | - |
| 1777704305 | 13.33° C | 66% | 1021.6 hPa | 0 mm | - | - | - |
| 1777704005 | 12.78° C | 68% | 1021.6 hPa | 0 mm | - | - | - |
| 1777703705 | 12.78° C | 69% | 1021.7 hPa | 0 mm | - | - | - |
| 1777703405 | 12.78° C | 69% | 1021.6 hPa | 0 mm | - | - | - |
| 1777703105 | 12.78° C | 69% | 1021.6 hPa | 0 mm | - | - | - |
| 1777702805 | 12.78° C | 69% | 1021.6 hPa | 0 mm | - | - | - |
| 1777702505 | 12.22° C | 69% | 1021.5 hPa | 0 mm | - | - | - |
| 1777702205 | 12.22° C | 70% | 1021.6 hPa | 0 mm | - | - | - |
| 1777701905 | 12.22° C | 70% | 1021.6 hPa | 0 mm | - | - | - |
| 1777701605 | 12.22° C | 71% | 1021.6 hPa | 0 mm | - | - | - |
| 1777701305 | 12.22° C | 71% | 1021.5 hPa | 0 mm | - | - | - |
| 1777701005 | 11.67° C | 72% | 1021.5 hPa | 0 mm | - | - | - |
| 1777700705 | 11.67° C | 73% | 1021.5 hPa | 0 mm | - | - | - |
| 1777700405 | 11.67° C | 74% | 1021.4 hPa | 0 mm | - | - | - |
| 1777700108 | 11.67° C | 74% | 1021.5 hPa | 0 mm | - | - | - |
| 1777699805 | 11.11° C | 75% | 1021.5 hPa | 0 mm | - | - | - |
| 1777699505 | 11.67° C | 74% | 1021.3 hPa | 0 mm | - | - | - |
| 1777699205 | 11.67° C | 74% | 1021.4 hPa | 0 mm | - | - | - |
* Rain latest hour (hover to see other rain measurements)
** Current wind speed in m/s (hover to see current wind gust speed)